Theta_e
310 309 310 311 310 310 309 309 310 309 309 312 314 313 314 314 311 310 309 305 302 301 297 295 295 295 294 293 292 292 291 290 288 287 286 286 285 284 284 283 283 282 282 282 281 281 280 280 279 279 278 278 277 276 276 275 275 274 274 275 275 274 274 274 274 274 274 274 274 275 276 275 275 275 275 275 275 274 273 273 273 273 273 273 274 275
307 309 310 309 308 309 308 306 308 310 310 311 313 314 315 315 311 308 309 306 304 303 298 295 295 295 294 293 292 292 291 290 288 287 287 286 285 285 284 284 283 282 282 281 281 280 280 279 279 278 278 278 277 276 276 275 275 274 274 274 274 274 274 273 273 273 273 273 274 274 275 275 274 274 274 274 274 274 273 273 272 272 272 273 274 274
309 309 308 307 307 309 307 304 306 309 310 309 311 315 315 312 310 309 310 308 304 301 297 295 295 294 293 292 291 291 290 290 289 288 287 286 286 285 284 284 283 283 282 281 281 280 280 279 279 278 278 277 277 276 276 275 275 274 274 273 274 274 273 273 273 272 272 273 273 273 274 275 274 273 273 273 273 273 272 272 272 272 272 272 273 274
309 308 306 307 308 310 307 305 307 309 309 308 308 311 311 308 308 310 311 308 304 301 297 295 294 293 292 292 291 290 290 289 288 288 287 287 286 286 285 284 284 283 282 281 281 280 280 279 278 278 277 277 276 276 276 275 275 274 274 273 273 273 273 273 273 272 272 272 272 273 274 274 273 273 273 273 273 273 272 272 271 271 272 272 273 273
307 305 305 306 307 308 309 306 307 309 311 310 307 307 307 307 307 309 309 307 302 298 296 296 296 294 293 293 292 291 290 289 288 288 287 287 286 286 285 285 284 283 283 282 281 280 280 279 279 278 277 277 276 276 275 275 275 274 274 273 273 273 273 272 272 272 272 272 272 272 273 274 273 272 272 272 272 272 272 271 271 271 271 271 272 272
306 304 304 305 306 307 308 307 306 308 312 311 308 305 306 307 307 308 309 308 305 301 299 301 303 298 293 293 292 291 291 290 289 288 287 287 286 285 285 284 284 283 282 282 281 281 280 279 279 278 278 277 276 276 275 275 275 274 274 273 273 273 272 272 272 272 271 272 272 271 272 273 273 272 272 271 271 272 272 271 271 270 271 271 271 271
307 305 303 303 305 307 307 306 304 306 310 311 308 306 306 306 306 308 309 310 310 307 303 303 306 303 295 292 293 291 291 290 289 289 287 287 286 285 285 284 283 283 282 282 281 281 280 280 279 278 278 277 276 276 275 275 274 274 274 273 272 272 272 272 271 271 271 271 271 271 271 272 272 272 271 271 271 271 271 271 270 270 270 270 270 270
306 305 304 303 304 306 305 304 304 306 307 308 307 307 307 305 306 307 307 310 311 308 306 303 304 306 299 294 293 292 291 291 290 289 288 287 286 285 285 285 284 283 283 283 282 281 280 280 279 279 278 277 276 276 275 275 274 274 274 273 272 272 272 271 271 271 271 271 271 271 271 271 271 271 271 271 270 270 271 270 270 270 270 269 269 269
305 304 304 303 303 304 304 303 304 305 306 310 310 306 306 306 306 306 306 309 309 307 309 304 303 308 303 295 293 292 291 291 290 289 288 287 286 286 285 285 284 283 283 283 282 282 281 280 280 279 278 277 277 276 275 275 274 274 274 273 273 272 272 271 271 271 270 270 270 270 270 270 270 271 271 270 270 270 270 270 270 269 269 269 269 268
304 304 303 302 303 302 303 303 304 305 305 309 309 305 306 307 306 307 306 307 308 308 310 305 304 310 305 295 293 293 292 293 292 289 289 288 287 286 286 285 284 284 283 283 282 282 281 280 280 279 278 277 277 276 275 275 274 274 273 273 273 272 272 271 271 270 270 270 270 269 270 270 270 270 270 270 269 269 269 269 269 269 268 268 268 268
305 308 306 303 303 301 301 304 304 304 304 307 308 306 308 310 309 308 306 307 309 310 312 308 304 306 304 297 293 294 294 294 292 290 289 288 287 287 287 286 285 285 284 283 282 282 281 281 280 279 278 278 277 276 275 275 274 274 273 273 273 272 271 271 271 270 270 270 269 269 269 269 269 270 270 269 269 269 269 268 268 268 267 267 267 268
308 309 306 304 304 301 303 305 303 305 305 305 306 306 307 309 310 311 311 311 310 310 312 308 303 303 305 301 294 293 293 292 292 291 289 288 288 287 287 287 286 285 285 283 282 282 282 281 280 279 279 278 277 276 275 275 274 274 273 273 272 272 271 271 271 270 270 269 269 269 269 269 269 269 269 269 269 268 268 268 268 267 267 267 267 267
307 304 303 306 305 302 303 304 303 306 306 303 302 305 308 308 307 308 310 308 305 306 307 304 302 303 303 298 293 292 292 290 291 291 289 289 288 287 287 287 286 286 286 284 282 282 282 281 281 280 279 278 277 276 275 275 274 274 273 272 272 272 271 271 270 270 270 269 269 269 269 268 268 269 269 269 268 268 268 268 267 267 267 267 266 267
308 304 304 307 305 302 302 303 302 303 304 303 302 304 308 308 305 305 306 304 303 306 305 302 301 302 301 296 292 291 290 289 289 289 289 289 288 287 287 286 286 286 286 284 282 282 282 281 281 280 279 278 277 276 275 275 274 273 273 272 272 272 271 271 270 270 269 269 269 269 268 268 268 268 268 268 268 268 268 267 267 266 266 266 266 266
307 304 303 303 302 302 302 302 301 301 304 305 302 302 305 305 303 305 306 304 304 305 304 303 301 302 304 297 290 290 290 289 289 288 288 288 288 288 287 287 287 286 286 284 282 282 283 282 281 279 278 277 277 276 275 274 274 273 273 272 272 271 271 271 270 270 269 269 269 268 268 268 268 268 268 268 268 267 267 267 266 266 266 266 266 266
304 302 301 302 301 302 303 301 301 302 303 304 303 304 303 299 299 304 305 303 303 303 303 305 301 298 297 291 288 289 289 288 289 289 288 288 288 287 287 287 286 286 286 285 284 282 282 282 280 279 278 277 276 276 275 274 274 273 272 272 271 271 271 270 270 269 269 269 268 268 268 268 268 268 267 267 267 267 266 266 266 266 265 265 265 265
305 304 303 303 302 302 301 300 300 300 301 303 304 302 298 295 297 303 306 303 301 300 300 301 300 296 294 291 289 289 289 289 289 289 288 288 287 287 287 286 286 285 285 285 284 283 282 280 279 278 277 276 276 276 275 274 273 273 272 272 271 271 270 270 269 269 269 268 268 267 267 267 267 267 267 267 266 266 266 266 265 265 265 265 265 265
303 306 307 303 302 302 300 301 300 299 300 302 303 301 297 298 301 302 303 303 302 301 300 300 299 299 299 295 290 288 288 289 289 288 288 288 287 287 286 286 286 285 285 284 283 282 281 280 279 278 277 276 276 275 275 274 273 272 272 271 271 271 270 270 269 269 268 268 267 267 267 267 267 267 266 266 266 266 265 265 265 265 264 264 264 264
301 306 308 303 302 302 302 303 301 300 301 300 299 298 297 300 303 302 299 300 302 301 300 301 298 298 300 299 294 292 291 290 289 288 288 288 287 287 286 286 286 285 285 284 282 280 280 280 278 277 276 276 275 275 274 273 272 272 272 271 271 270 270 269 269 268 268 267 267 267 266 266 266 266 266 266 265 265 265 265 264 264 264 264 264 264
300 304 305 303 302 301 303 303 300 300 301 300 299 298 298 299 300 300 298 299 301 301 300 300 299 299 300 298 296 295 294 293 292 289 288 288 287 287 287 286 286 285 285 284 282 278 278 279 278 277 276 275 275 274 273 273 272 272 271 271 270 270 269 269 268 268 267 267 267 266 266 266 266 266 265 265 265 265 264 264 264 264 264 264 264 263
302 302 302 304 303 300 300 300 298 298 298 300 300 298 299 300 298 298 298 299 300 299 298 298 298 300 298 294 294 295 294 294 293 290 289 288 287 287 287 286 287 286 285 283 280 278 278 278 277 276 276 275 274 273 273 272 272 272 271 270 270 269 269 268 268 268 267 267 266 266 266 266 266 265 265 265 265 264 264 264 264 264 264 263 263 263
302 300 299 304 304 300 299 297 296 296 295 298 300 297 296 298 298 297 298 300 298 295 296 296 296 299 297 292 292 294 293 293 292 290 290 288 287 287 287 287 287 285 284 281 278 277 278 277 277 276 275 274 274 273 273 272 272 271 270 270 269 269 268 268 267 267 267 266 266 266 266 265 265 265 265 264 264 264 264 264 264 263 263 263 263 262
299 298 299 303 301 299 298 296 295 296 296 296 297 296 297 297 296 297 298 299 298 295 296 295 294 297 297 292 292 292 291 291 290 290 289 288 288 287 287 286 285 284 283 280 277 277 277 277 276 276 275 274 273 273 272 272 271 270 270 269 269 269 268 268 267 267 266 266 266 265 265 265 265 265 264 264 264 264 263 263 263 263 263 262 262 262
298 297 298 303 301 298 299 297 295 295 296 297 296 295 297 297 296 297 297 295 296 297 296 293 293 297 296 292 291 291 290 290 289 289 289 287 287 286 285 285 284 282 281 278 277 277 277 276 276 275 274 273 273 272 271 271 270 270 269 269 269 268 268 267 267 266 266 266 265 265 265 264 264 264 264 264 263 263 263 263 263 262 262 262 262 262
299 297 297 302 302 300 302 301 299 298 296 296 296 295 295 296 295 295 294 293 295 296 292 290 293 296 294 292 290 289 289 289 288 288 287 286 286 285 285 285 283 281 280 278 277 276 276 276 275 274 273 273 272 272 271 270 270 269 269 268 268 267 267 267 266 266 265 265 265 264 264 264 264 263 263 263 263 263 263 262 262 262 262 261 261 261
301 301 297 298 297 295 298 299 299 301 298 295 295 295 294 295 294 293 293 294 296 296 291 290 292 292 291 291 291 290 289 288 288 287 286 286 286 286 285 283 281 280 280 279 278 276 275 275 274 273 273 272 272 271 270 270 269 269 268 268 267 267 266 266 265 265 265 264 264 264 264 263 263 263 263 263 262 262 262 262 262 261 261 261 261 260
301 302 297 298 298 295 295 296 296 299 297 294 295 295 295 295 293 293 294 296 298 295 291 291 291 289 289 290 290 290 290 289 287 286 286 286 286 286 285 282 281 280 280 279 277 276 275 274 274 273 272 272 271 270 270 269 269 268 268 267 267 266 266 265 265 265 264 264 264 263 263 263 263 262 262 262 262 262 262 261 261 261 260 260 260 260
299 300 297 296 298 296 295 295 295 296 296 294 294 296 296 295 294 293 294 296 295 292 291 292 291 289 289 289 289 290 290 288 287 286 286 286 285 285 283 282 281 280 279 278 277 276 275 274 273 272 271 271 271 270 269 269 268 268 267 267 266 266 265 265 265 264 264 263 263 263 262 262 262 262 262 262 262 261 261 261 260 260 260 260 259 259
296 299 297 294 296 296 294 293 293 294 295 294 294 295 295 296 295 294 295 295 292 291 291 291 290 290 290 289 289 289 289 288 287 287 286 285 285 284 282 281 280 279 279 278 276 276 274 273 272 272 271 270 270 269 269 268 268 267 267 266 266 265 265 264 264 264 263 263 262 262 262 262 262 262 261 261 261 261 260 260 260 259 259 259 259 258
295 301 300 295 296 297 294 294 295 294 295 294 294 294 294 295 295 294 294 294 292 291 291 290 290 291 289 289 289 289 288 287 286 286 286 285 285 284 282 281 280 279 279 277 276 275 273 272 272 271 270 270 269 269 268 268 267 267 266 266 265 265 264 264 263 263 262 262 262 261 261 261 261 261 261 261 260 260 260 259 259 259 258 258 258 258
293 297 299 295 295 297 296 297 297 295 295 294 293 293 293 294 294 293 292 292 292 292 292 291 290 290 289 289 290 288 288 287 286 285 285 284 284 283 283 282 280 279 278 276 275 274 272 271 271 270 270 269 269 268 268 267 267 266 266 265 265 264 264 263 263 262 262 261 261 261 261 261 261 261 260 260 260 259 259 259 258 258 258 257 257 257
293 295 299 296 294 297 298 296 296 295 293 293 293 293 292 293 294 294 293 293 293 293 292 291 289 288 289 289 289 287 287 286 285 285 284 283 283 283 282 282 281 279 277 275 274 273 271 271 270 270 269 269 268 268 267 267 266 266 265 265 264 264 263 263 262 262 261 261 261 261 261 260 260 260 260 259 259 259 258 258 258 257 257 257 257 257
294 295 298 295 294 299 299 294 293 293 293 296 298 295 293 293 293 294 293 292 292 291 291 291 290 288 288 288 288 287 286 285 285 284 284 283 282 282 282 281 280 278 275 274 274 272 271 270 270 269 269 268 268 267 267 266 266 265 265 264 264 263 263 262 262 261 261 261 261 260 260 260 260 259 259 259 258 258 258 257 257 257 257 257 256 256
295 295 296 293 293 300 301 295 292 292 295 299 296 293 293 294 294 293 292 292 291 290 290 290 289 288 287 287 287 287 286 285 284 284 283 282 281 281 280 279 277 276 274 273 272 271 270 270 269 269 268 268 267 267 266 266 265 265 264 264 263 263 262 262 261 261 261 260 260 260 260 259 259 259 259 258 258 258 257 257 257 256 256 256 256 255
295 295 295 294 293 297 300 296 292 295 300 297 291 289 291 292 291 292 291 291 289 289 289 289 288 288 287 287 286 286 285 284 283 282 281 280 279 279 278 277 276 275 274 273 271 270 270 270 269 268 268 267 267 266 266 265 265 264 264 263 263 262 262 261 261 261 260 260 260 259 259 259 259 258 258 258 257 257 257 256 256 256 256 255 255 255
293 292 294 295 295 296 297 294 292 295 298 294 290 290 290 290 289 290 290 291 289 289 289 288 288 287 287 287 286 285 284 283 282 281 280 278 277 277 277 276 275 274 273 272 271 270 270 269 268 268 267 267 266 266 265 265 264 264 263 263 262 262 261 261 261 260 260 260 259 259 259 258 258 258 257 257 257 256 256 256 255 255 255 255 254 254
290 291 292 293 294 294 294 294 294 293 293 295 293 291 290 290 290 289 290 290 289 289 289 287 287 287 287 287 286 284 283 282 282 282 279 276 276 276 275 275 274 274 273 272 271 270 269 269 268 267 267 266 266 265 265 264 264 263 263 262 262 261 261 261 260 260 260 259 259 259 258 258 258 257 257 256 256 256 255 255 255 254 254 254 254 254
289 290 291 292 294 295 293 294 295 293 294 299 295 288 287 289 288 288 289 288 288 289 288 286 287 287 287 287 286 284 283 282 282 282 279 276 275 274 274 274 274 273 272 271 270 270 269 268 268 267 267 266 266 265 264 264 263 263 263 262 262 261 261 260 260 260 259 259 259 258 258 258 257 257 256 256 256 255 255 254 254 254 254 254 254 253
290 290 290 290 293 295 292 292 294 293 294 296 292 286 286 287 287 287 289 290 290 288 286 287 287 287 287 286 284 283 283 282 283 283 280 276 275 274 273 273 273 272 272 271 270 269 269 268 267 267 266 266 265 265 264 264 263 263 262 262 261 261 261 260 260 260 259 259 258 258 258 257 257 256 256 255 255 255 254 254 254 254 254 253 253 253
291 291 292 292 293 294 293 293 294 294 293 293 290 287 286 286 286 288 290 292 291 287 285 286 287 286 286 285 283 283 283 283 283 282 279 276 275 274 273 273 272 272 271 270 269 269 268 268 267 267 266 265 265 264 264 263 263 262 262 262 261 261 261 260 260 259 259 258 258 258 258 257 256 256 255 255 254 254 254 254 253 253 253 253 253 253
294 293 292 293 294 294 293 293 293 294 295 292 288 286 285 285 286 289 291 292 290 287 286 286 285 285 285 284 284 283 283 283 283 281 277 275 275 275 274 273 272 271 271 270 269 269 268 268 267 266 266 265 265 264 263 263 262 262 262 261 261 261 260 260 260 259 259 258 258 258 257 257 256 256 255 255 254 254 254 254 253 253 253 253 253 253
297 296 293 292 293 293 293 293 292 294 295 289 285 285 285 286 289 291 291 290 289 288 287 285 285 285 284 284 284 283 282 282 282 280 278 276 275 275 273 272 271 271 270 270 269 268 268 267 266 266 265 265 264 264 263 263 262 262 261 261 261 260 260 260 259 259 258 258 258 257 257 256 256 255 255 254 254 253 254 254 253 253 253 253 253 253
297 296 296 296 295 292 292 292 292 295 294 286 284 286 285 287 293 293 289 288 288 288 287 286 285 285 284 284 283 282 282 281 280 280 279 276 275 274 273 272 271 270 270 269 268 268 267 266 266 266 265 264 264 263 263 262 262 261 261 261 260 260 260 259 259 258 258 258 257 257 257 256 256 255 255 254 254 253 253 253 253 253 253 253 253 253
294 293 297 299 296 293 292 293 294 296 292 285 287 291 289 287 290 291 289 288 288 287 286 286 285 285 284 284 283 282 282 281 280 279 278 276 274 273 272 272 271 270 270 269 268 268 267 266 266 265 265 264 263 263 262 262 261 261 261 260 260 259 259 259 259 258 258 257 257 257 256 256 256 255 255 254 254 253 253 253 253 253 253 253 253 253
295 295 296 296 295 295 294 294 293 292 289 286 287 290 290 288 288 288 287 288 287 286 286 286 285 285 284 283 283 282 281 280 279 278 277 276 274 272 272 271 271 270 269 268 268 267 266 266 266 265 264 264 263 263 262 262 261 261 260 260 260 259 259 259 258 258 257 257 257 256 256 256 256 255 255 254 253 253 253 253 253 253 253 253 253 253
294 292 292 292 294 294 291 291 291 290 289 288 286 287 288 288 288 287 287 287 287 286 286 285 285 285 284 282 282 281 280 280 278 277 276 275 273 272 272 271 270 270 269 268 268 267 266 266 265 264 264 264 263 263 262 262 261 261 260 260 259 259 259 258 258 257 257 256 256 256 255 255 255 255 254 254 253 253 253 253 252 252 252 252 252 252
292 288 289 290 292 291 290 291 291 290 290 290 288 287 287 287 286 287 287 287 286 286 286 285 284 284 282 281 281 281 280 279 278 277 276 275 272 271 271 271 270 269 269 268 267 267 266 265 265 264 264 263 263 263 262 261 261 260 260 260 259 259 258 258 257 257 256 256 256 256 255 255 254 254 254 253 253 253 253 253 252 252 252 252 252 252
292 289 289 290 289 289 290 291 290 289 289 289 288 288 287 287 287 287 286 286 286 285 284 283 282 282 281 281 280 280 279 278 277 276 276 274 271 270 270 270 270 269 268 268 267 267 266 265 265 264 264 263 263 262 262 261 261 260 260 259 259 258 258 258 257 256 256 256 255 255 255 255 254 253 253 253 253 253 253 253 252 252 252 252 252 253
291 289 290 291 289 289 289 289 289 289 289 289 288 288 288 288 288 288 287 286 285 285 283 282 280 280 280 280 279 279 279 278 276 275 275 273 270 269 270 270 269 269 268 268 267 266 266 265 264 264 263 263 263 262 262 261 261 260 260 259 259 258 258 257 257 256 256 255 255 255 255 254 254 253 253 253 253 253 253 253 252 252 252 253 253 253
289 290 290 290 290 290 290 290 290 290 290 290 290 290 290 289 289 288 287 286 285 285 284 283 281 279 278 278 278 277 278 277 275 274 273 272 270 270 270 269 269 268 268 267 266 266 265 265 264 264 263 263 262 262 261 261 260 260 260 259 259 258 257 257 256 256 255 255 255 255 255 254 254 253 253 252 252 252 253 254 254 253 253 253 254 254
289 291 291 291 292 291 290 290 290 289 289 289 289 290 291 289 288 288 287 286 285 284 283 283 282 280 279 277 276 276 276 275 274 273 271 270 270 270 270 269 268 268 267 267 266 266 265 264 264 263 263 263 262 262 261 261 260 260 259 259 258 258 257 256 255 255 255 255 255 255 254 254 253 253 253 252 252 252 252 252 254 255 255 254 254 254
Wind_Speed
4 6 6 4 5 6 6 5 3 2 3 2 2 2 3 4 3 2 2 3 9 9 5 8 11 8 8 7 8 8 8 10 9 8 8 7 6 6 6 6 6 7 8 13 16 16 17 17 17 17 17 18 20 21 22 24 27 26 24 22 21 24 27 27 26 25 23 22 21 19 18 18 17 16 15 16 17 20 20 18 19 20 20 19 18 16
6 7 5 6 6 5 6 6 7 7 7 6 3 4 5 3 1 3 1 1 5 8 4 8 12 8 7 6 5 7 8 7 8 9 8 8 7 6 6 7 6 6 8 12 14 14 15 15 15 16 17 17 18 20 21 22 24 25 25 23 20 21 24 26 25 24 22 20 19 17 15 15 17 16 15 15 17 19 20 19 18 20 20 19 18 16
7 7 8 10 5 3 7 9 10 8 7 7 5 4 4 2 1 3 3 4 5 6 5 7 11 7 6 8 8 7 7 6 6 8 7 7 7 6 6 6 6 6 6 8 10 12 13 13 14 15 16 17 16 17 18 20 21 23 23 22 20 19 21 22 22 22 21 18 17 16 13 13 15 16 13 13 14 17 19 18 18 19 19 18 17 17
5 5 10 9 5 6 8 11 10 7 5 5 5 4 1 2 2 2 4 4 7 6 9 10 9 6 5 7 7 6 7 7 7 8 7 6 6 6 6 5 6 6 5 5 7 10 11 11 12 13 14 15 15 15 16 17 18 20 21 20 19 18 19 20 19 20 20 17 17 16 13 11 13 14 13 13 14 15 17 18 19 20 18 17 17 17
5 6 8 7 9 8 8 9 9 7 5 3 3 4 1 3 1 2 2 4 9 8 10 11 7 2 2 3 3 3 5 6 6 8 7 6 6 6 6 6 5 6 5 5 5 7 8 9 9 11 12 12 13 14 15 15 15 17 19 19 18 16 17 19 18 18 19 17 17 18 14 11 13 14 14 16 16 17 17 18 20 20 17 17 16 16
5 7 7 8 9 9 7 6 6 5 4 4 1 2 1 2 3 2 3 5 6 2 5 6 3 1 2 3 4 3 4 5 4 6 6 5 6 6 5 6 5 5 6 6 6 6 7 7 7 8 9 10 11 12 13 14 14 14 16 18 18 16 16 19 18 18 18 16 16 18 16 13 14 13 14 16 17 18 17 18 19 19 17 17 16 16
4 7 6 8 6 8 8 4 3 4 4 4 2 0 1 0 2 2 3 3 2 2 5 5 2 1 3 4 5 4 4 4 4 5 6 5 5 5 5 5 5 5 5 6 7 7 6 5 5 5 7 8 8 9 10 13 13 12 13 16 17 15 15 18 18 17 18 17 16 17 15 13 14 13 13 14 16 16 16 17 18 17 16 16 16 17
3 7 9 9 7 7 6 4 4 3 5 3 4 3 5 5 3 3 3 3 3 1 1 3 2 1 2 3 5 6 5 5 5 5 6 5 5 5 5 5 5 5 5 5 5 6 6 4 3 3 3 5 5 6 8 10 12 11 12 14 16 15 15 17 18 17 18 17 17 17 14 14 14 13 13 14 15 15 15 17 17 16 16 16 17 18
2 6 8 8 8 6 3 5 6 1 3 6 7 6 7 7 4 5 3 3 2 2 1 3 2 1 1 2 5 6 5 6 7 7 6 6 6 6 5 6 5 5 6 6 5 6 6 4 2 1 1 2 2 4 5 7 10 12 12 12 15 15 15 17 18 18 18 16 17 17 15 15 15 14 14 13 14 15 16 16 16 15 16 17 18 18
1 2 2 4 6 4 5 8 5 2 1 7 8 8 5 2 2 4 3 1 2 3 2 4 3 1 1 3 4 4 4 5 6 6 6 6 7 6 6 6 6 5 5 6 7 6 5 5 3 1 1 1 2 2 3 5 8 12 12 11 14 15 15 16 17 18 18 17 18 17 16 16 16 16 15 14 14 15 16 16 16 16 18 19 19 18
1 2 2 3 3 4 5 6 3 1 3 6 7 7 6 5 3 2 2 3 4 2 4 5 4 1 1 2 3 3 3 4 4 5 5 6 7 6 6 5 5 5 4 6 7 7 6 5 5 3 2 2 2 1 2 4 8 11 12 13 14 14 15 16 17 19 19 18 18 17 17 17 17 17 16 15 14 16 17 17 16 17 19 20 19 18
5 5 3 1 3 4 3 4 6 5 4 5 5 4 4 4 4 4 4 4 4 2 6 4 3 1 1 3 3 3 2 2 3 6 8 8 7 5 5 4 4 4 4 6 7 8 8 7 6 5 4 3 3 2 1 4 7 10 13 14 13 13 15 16 17 18 18 18 18 17 18 18 18 18 17 16 16 17 17 17 17 19 20 20 19 19
4 3 3 4 4 6 6 4 7 7 7 7 5 5 5 3 4 4 4 3 1 4 5 2 0 0 2 3 4 4 3 2 3 3 7 8 7 5 5 4 4 4 4 5 6 8 9 9 9 8 6 4 4 3 2 4 6 9 13 14 12 13 15 15 16 17 17 18 18 17 18 19 19 18 17 16 16 17 17 17 18 20 20 20 20 20
3 3 6 6 4 4 5 4 4 5 5 5 4 4 3 2 4 3 3 3 2 5 5 3 1 1 2 2 5 5 4 3 2 0 3 6 6 5 5 4 4 4 5 5 6 9 10 11 11 9 6 5 4 3 3 4 6 8 12 13 11 13 14 14 15 16 17 18 17 17 18 19 19 18 16 16 17 17 17 18 20 21 21 21 21 21
2 3 5 4 2 3 4 3 1 3 3 4 0 4 3 4 3 2 2 1 3 5 6 5 2 2 1 2 4 5 4 4 2 1 2 3 4 4 4 4 5 5 5 5 7 11 13 13 12 9 6 5 4 4 4 4 6 8 11 11 11 12 13 14 16 16 17 18 17 17 18 19 18 16 16 17 17 17 18 19 20 21 21 21 21 22
2 2 4 1 1 3 4 3 1 3 1 4 1 5 2 1 3 3 3 4 3 4 4 2 1 3 2 2 2 3 3 4 3 3 3 4 4 4 4 5 5 6 6 5 6 10 13 12 11 10 7 4 3 3 4 5 6 8 9 10 11 12 13 14 15 16 17 17 16 18 19 18 17 16 17 17 17 18 20 20 20 21 21 22 23 23
2 3 4 2 4 2 3 1 5 5 0 3 3 2 4 3 5 2 3 4 2 2 3 1 1 2 2 2 3 2 3 4 5 5 6 6 5 5 6 6 6 7 7 6 7 10 11 12 12 10 7 4 2 2 4 5 6 7 8 10 11 12 13 14 15 16 16 15 17 18 19 18 17 18 18 19 19 21 21 20 20 22 23 23 23 24
2 2 6 1 0 3 2 4 7 6 3 3 1 4 4 1 2 2 1 4 4 1 3 2 3 3 2 2 2 3 5 7 8 8 8 7 6 7 7 7 8 8 7 7 8 9 12 13 12 9 7 4 1 2 3 3 4 6 8 10 12 13 14 14 14 15 15 17 18 19 19 18 18 18 19 19 20 20 20 21 22 23 24 23 23 24
2 1 6 2 4 3 2 5 5 6 4 4 2 2 2 2 1 2 1 1 3 3 4 5 4 2 2 2 2 4 8 9 9 8 8 8 8 8 8 8 9 7 5 6 4 7 11 11 11 9 7 3 1 0 1 2 4 7 10 11 12 13 13 13 14 15 16 18 19 18 19 18 18 19 20 20 20 20 21 23 24 24 23 23 23 24
1 2 4 3 2 1 3 4 1 4 6 4 3 4 3 2 2 1 0 2 1 2 3 4 5 3 4 4 5 6 8 9 9 7 8 10 9 8 7 7 6 5 5 5 4 7 10 10 10 10 6 3 1 1 1 3 6 9 11 13 13 13 13 14 15 16 18 19 18 19 19 19 19 20 21 21 21 22 23 24 24 23 22 23 23 24
2 2 2 5 3 1 1 1 2 2 2 2 4 4 3 2 1 0 1 1 2 1 2 3 5 5 4 3 4 6 6 7 7 7 7 8 8 7 7 5 5 5 5 4 5 8 10 10 10 8 5 2 1 0 3 6 8 10 11 12 12 13 13 14 15 17 19 19 19 19 19 19 20 21 21 21 22 23 23 22 21 21 22 23 24 24
2 1 2 4 4 1 2 4 2 3 3 3 2 2 1 0 2 2 2 3 2 2 3 2 4 6 3 2 4 4 4 4 5 5 5 5 6 7 6 5 5 4 5 5 6 9 10 9 8 6 3 1 1 3 5 7 8 9 10 11 12 12 12 14 17 18 19 19 19 19 19 20 21 21 21 21 22 22 21 20 21 22 23 24 25 26
0 2 0 3 3 3 5 4 1 4 6 5 2 2 3 2 4 5 2 3 2 2 2 1 3 6 4 3 3 4 4 5 5 5 4 5 5 5 4 4 3 4 5 6 8 10 10 8 7 6 3 0 1 3 4 6 7 8 10 11 12 13 14 16 18 19 19 19 19 19 20 21 21 20 20 21 21 20 21 22 23 23 24 26 26 26
0 1 1 3 3 3 4 4 2 3 5 4 1 1 3 2 3 5 4 2 1 3 1 1 3 6 5 3 3 4 4 4 4 5 5 4 4 3 4 4 4 5 5 6 8 10 10 9 7 5 2 1 0 2 4 5 6 8 10 12 12 13 15 17 18 19 19 19 18 19 20 21 20 20 21 21 21 22 23 23 23 24 25 26 26 26
1 0 1 2 4 6 6 5 4 3 2 1 1 0 2 3 4 3 2 2 1 3 3 3 4 5 3 2 2 3 4 5 5 5 4 4 3 4 5 3 3 5 4 5 6 8 10 9 7 5 3 1 1 2 4 5 7 9 10 10 11 13 15 17 18 18 17 18 19 20 20 20 20 20 20 20 21 22 23 23 23 24 25 26 26 26
1 1 2 3 1 4 4 4 4 3 2 1 2 1 1 3 4 3 2 3 1 4 2 3 6 6 4 3 3 4 5 5 5 4 4 4 4 5 4 1 4 5 5 5 5 6 8 8 7 5 3 1 1 2 4 6 8 9 10 10 11 13 16 17 17 17 17 18 20 20 19 19 20 20 20 21 22 22 22 23 24 25 25 26 26 27
2 0 1 5 5 5 6 7 5 2 2 2 2 3 3 3 4 5 4 3 4 2 2 5 7 8 9 7 6 5 5 6 5 4 4 4 5 5 3 3 4 4 4 5 5 5 6 7 7 4 2 0 2 3 5 7 8 9 9 10 12 14 16 17 16 16 17 19 19 19 19 19 20 20 21 21 21 21 22 24 24 25 26 26 26 27
3 2 1 3 5 8 8 9 6 3 3 5 4 4 5 5 5 6 4 6 4 2 4 8 6 7 12 10 7 6 5 5 5 4 5 5 5 4 3 4 4 4 5 5 5 5 5 6 6 3 1 1 2 4 6 7 8 9 9 11 13 15 16 16 15 16 18 19 19 19 19 20 20 20 21 20 21 22 23 24 25 25 26 26 26 28
4 2 3 2 5 8 8 9 7 5 4 4 5 5 6 6 7 7 8 7 5 3 8 9 6 9 13 12 8 6 6 6 6 6 6 5 5 4 4 4 5 5 5 5 5 5 5 6 5 3 1 1 3 4 6 7 8 9 10 12 14 15 14 14 16 17 18 18 19 20 20 20 20 20 20 21 22 23 24 25 26 26 26 26 27 28
3 2 3 2 4 10 10 7 6 6 4 4 6 7 7 7 9 9 8 7 6 7 11 11 12 14 12 10 9 6 7 6 5 4 5 5 5 4 4 5 6 5 5 6 5 5 5 6 4 2 0 2 3 5 6 7 8 9 10 12 13 13 13 15 16 18 18 19 20 20 20 20 20 20 21 22 23 25 25 26 27 27 27 28 28 28
1 2 2 2 2 8 8 4 3 5 5 6 8 7 7 7 8 8 7 6 6 9 11 10 11 13 9 6 6 5 5 5 4 4 6 5 5 5 5 6 6 5 5 5 5 5 5 5 3 1 1 2 4 5 6 7 8 9 10 11 12 13 13 15 17 18 19 20 20 19 19 20 20 21 22 23 25 26 26 27 27 28 28 29 29 29
2 1 2 4 3 6 5 2 4 4 3 6 10 10 8 7 6 6 6 5 6 7 8 7 7 9 6 3 3 4 4 5 5 6 6 5 5 6 6 7 7 5 5 5 4 4 4 4 3 1 2 3 4 6 7 7 8 9 10 11 12 13 14 17 19 19 19 19 18 19 19 19 20 21 23 24 25 26 26 27 28 28 29 29 29 30
2 1 1 2 1 6 5 4 4 3 4 6 8 8 9 8 7 6 5 6 8 6 4 5 7 9 5 2 4 5 5 5 6 5 5 5 6 6 7 7 5 4 5 4 4 4 4 4 3 2 2 3 5 7 7 7 8 10 11 12 13 15 17 19 20 18 18 18 18 19 19 20 21 22 23 24 25 26 27 27 28 28 28 29 30 30
3 3 1 1 1 5 7 5 5 4 3 5 4 3 5 7 8 9 8 8 8 6 4 6 9 10 8 6 6 6 6 6 5 5 4 4 5 6 5 4 3 4 4 4 5 5 5 4 3 3 4 5 6 7 7 8 10 11 12 14 15 17 19 20 18 17 18 19 19 20 20 21 22 23 24 25 26 27 28 27 28 28 29 30 30 31
2 2 1 1 2 3 4 5 5 3 6 6 3 1 1 3 3 5 8 9 8 8 9 11 13 12 10 7 6 6 6 5 4 5 4 3 4 4 3 3 4 4 4 4 5 5 5 4 3 4 5 6 7 7 8 9 11 12 13 14 16 18 18 17 16 17 19 19 20 21 21 21 22 23 25 27 27 28 28 28 29 30 30 30 30 31
3 2 1 1 2 2 2 3 1 6 7 4 3 2 1 3 4 1 7 10 9 9 10 11 13 12 7 5 5 4 3 4 4 5 4 4 4 4 4 4 5 5 5 6 6 7 6 5 5 5 6 6 7 8 9 10 11 12 13 14 16 18 17 15 16 18 19 20 20 21 20 21 22 24 26 28 28 28 29 29 30 31 30 30 30 31
5 3 0 1 1 1 1 3 3 6 7 5 3 2 2 2 3 3 3 7 7 7 9 9 10 10 6 5 6 3 3 5 7 6 4 5 5 6 6 7 7 7 8 8 8 7 6 6 6 6 6 7 8 9 10 10 11 12 14 16 17 17 15 15 17 18 19 20 20 20 21 21 23 25 27 28 27 28 30 30 30 31 30 30 30 31
4 4 2 1 1 1 1 4 4 4 5 5 4 2 2 3 5 6 1 6 6 7 8 8 8 8 6 6 6 2 4 4 8 7 4 6 6 7 8 10 10 9 9 9 8 7 7 6 6 6 7 8 9 10 9 10 12 13 15 17 16 16 16 16 18 19 19 20 20 20 22 23 24 26 27 27 28 30 31 31 31 30 29 29 30 31
2 1 3 2 2 0 1 3 3 2 6 6 4 3 3 4 6 7 3 6 6 5 6 6 7 7 6 7 5 1 2 5 9 6 3 6 8 8 9 9 9 9 9 10 10 9 8 7 7 7 8 9 9 10 10 11 13 14 16 17 16 16 17 18 19 20 20 20 21 22 23 25 26 26 26 28 30 30 31 31 31 30 29 29 30 31
4 2 2 3 5 3 3 3 4 4 6 5 6 5 4 4 7 6 5 8 6 6 6 6 7 8 7 6 5 4 4 7 8 5 3 7 9 10 10 9 9 10 9 9 9 8 7 7 7 8 9 10 10 10 11 12 14 15 17 16 16 17 20 21 20 20 20 21 22 23 25 26 26 26 27 29 31 30 31 31 30 30 30 30 30 31
2 2 2 4 5 4 4 4 4 5 6 4 6 7 6 5 5 1 6 6 5 6 7 7 7 8 7 6 5 5 6 8 6 3 4 7 6 8 9 9 8 8 9 9 9 8 8 8 9 10 10 10 10 11 12 13 15 16 16 16 17 20 21 21 21 20 21 22 23 25 27 27 26 27 29 30 29 30 30 30 30 30 30 30 30 30
1 1 1 3 3 4 4 3 3 6 5 4 6 5 5 3 1 5 6 3 5 6 7 7 7 7 6 6 6 6 7 7 5 4 4 5 4 5 7 8 7 7 7 8 9 8 8 8 9 10 11 11 11 12 13 13 14 15 15 16 19 21 21 20 20 20 21 23 25 27 27 27 28 29 30 29 29 29 30 30 29 30 29 29 30 30
3 2 2 3 3 2 2 1 3 6 4 8 10 4 3 4 5 5 3 2 4 6 6 6 7 6 6 6 7 7 7 6 6 5 5 4 4 5 7 8 8 8 9 9 9 9 8 9 10 12 12 12 12 13 12 12 14 14 15 18 21 20 18 18 19 20 22 24 26 27 27 28 30 30 29 29 28 28 29 30 30 30 30 28 28 28
3 4 3 4 3 2 2 4 4 4 5 10 9 4 6 9 7 4 2 4 4 5 5 5 6 6 6 6 7 7 7 6 6 6 5 5 5 6 7 8 8 9 10 10 10 9 9 10 11 12 12 12 12 13 12 12 14 15 17 20 19 17 17 18 19 20 23 25 26 26 27 29 30 29 28 27 27 27 28 29 29 30 29 27 26 26
6 6 4 4 4 4 5 8 6 3 4 8 9 7 7 9 8 5 6 6 5 4 5 4 5 6 6 6 6 6 6 6 6 5 5 5 5 6 8 8 9 9 10 10 9 9 9 11 12 12 13 13 13 13 13 13 14 16 19 19 18 16 17 19 20 22 24 25 25 26 28 29 29 28 26 26 25 26 27 28 29 29 29 27 26 25
6 4 3 2 3 5 7 8 8 7 7 8 10 10 9 9 8 6 7 7 6 5 5 4 5 6 6 5 5 6 6 6 6 5 5 5 5 7 8 8 8 9 9 9 9 9 10 10 12 12 14 14 14 14 14 15 16 18 19 19 17 17 18 19 21 23 24 24 26 27 27 28 28 27 26 25 25 25 26 26 27 28 28 27 26 26
3 2 3 3 3 4 6 6 5 8 10 8 8 8 9 10 9 7 7 7 6 6 5 5 6 5 5 6 6 6 7 6 6 6 5 4 6 7 9 9 10 10 10 10 10 10 11 11 13 14 15 16 16 16 16 16 17 18 19 18 17 18 19 20 22 23 24 25 26 27 27 27 26 26 26 26 26 26 27 26 25 27 28 27 26 27
1 1 2 5 5 6 9 10 9 9 10 9 8 7 8 9 9 8 7 6 5 5 6 7 6 5 4 5 6 7 7 6 6 6 5 5 7 8 10 11 12 11 11 11 11 11 11 13 14 15 16 17 18 17 17 18 19 19 18 18 18 19 20 21 22 23 24 25 26 27 26 25 25 25 26 27 27 27 27 27 26 26 28 28 26 27
2 2 3 3 5 7 9 11 10 9 10 10 11 9 8 7 7 7 6 6 5 5 6 6 7 7 7 7 6 6 7 7 7 7 6 5 6 9 11 12 12 12 12 12 12 13 13 14 16 16 17 19 19 18 18 18 19 19 19 18 18 19 20 21 22 23 24 25 26 26 25 25 25 25 26 27 27 27 27 27 26 25 27 28 26 24
3 4 4 2 4 7 8 9 7 6 7 9 9 8 7 6 6 6 6 6 6 7 6 6 7 8 9 11 10 8 6 7 8 8 8 7 9 11 12 12 12 12 12 12 13 14 14 15 16 16 18 19 19 18 18 19 20 19 19 18 18 19 20 21 21 23 24 25 25 25 25 25 26 26 26 26 27 27 28 28 27 25 24 26 25 23
5 7 5 4 6 10 11 10 7 5 7 10 8 7 6 5 6 6 7 7 7 7 6 6 6 7 7 10 13 11 9 9 10 10 9 9 12 13 12 12 13 13 13 13 14 15 16 16 17 17 19 20 20 19 19 20 20 19 19 18 19 20 20 19 20 23 25 25 25 25 24 25 26 26 26 26 26 26 27 29 31 29 25 23 24 24
Wind_Direction
64 61 32 7 326 327 331 351 32 349 333 305 289 15 24 55 45 350 60 107 110 88 64 100 106 107 105 106 114 115 108 104 106 103 102 105 103 105 104 103 100 95 94 83 73 68 65 62 57 53 50 46 41 38 36 33 32 33 34 32 26 20 22 26 25 25 27 22 14 12 11 8 9 11 11 8 360 357 10 18 10 11 14 12 15 9
56 55 2 311 304 332 357 17 38 28 29 28 20 47 40 71 104 295 322 68 96 93 94 110 103 94 92 92 95 103 103 105 114 115 117 119 116 121 119 115 111 106 104 93 81 73 67 62 58 53 49 46 41 36 33 33 30 28 31 32 27 20 19 22 22 21 22 21 14 8 6 1 2 9 7 359 354 354 6 14 7 9 10 7 12 5
48 33 329 307 304 34 25 28 46 40 47 45 36 75 50 20 44 294 329 20 64 98 126 115 100 87 68 67 61 65 81 86 101 112 119 126 126 129 126 123 119 112 106 97 88 79 70 64 59 52 48 46 43 36 31 30 29 27 28 28 27 22 18 18 18 17 17 16 12 8 7 358 356 5 3 354 354 355 3 8 4 6 6 6 11 4
61 351 322 326 8 71 44 23 36 37 41 52 52 75 338 326 74 301 314 23 44 85 128 115 94 86 67 65 65 68 84 84 82 90 93 104 113 116 118 118 119 118 112 104 95 87 78 69 60 52 47 43 41 37 30 26 26 26 25 23 24 22 17 15 13 12 12 11 8 7 10 360 350 359 360 356 357 355 358 1 0 4 3 4 9 4
63 326 321 10 38 61 62 29 29 35 15 1 70 85 318 305 346 262 219 81 55 69 117 111 86 85 95 87 97 95 103 103 98 97 95 99 106 103 103 104 111 118 117 114 105 96 89 77 64 54 45 40 39 36 31 25 22 22 22 20 20 19 15 13 10 7 6 6 4 3 5 359 352 356 359 359 355 351 353 353 354 360 360 359 0 357
38 335 347 32 35 42 60 42 28 43 16 332 344 115 231 276 305 283 152 103 72 90 172 132 90 273 137 132 165 158 114 113 118 120 123 129 124 118 116 117 113 115 118 122 120 108 99 86 71 56 41 39 37 32 31 27 19 14 17 17 16 15 12 10 9 6 4 4 2 360 358 355 353 353 355 356 349 345 347 345 347 355 356 355 350 344
11 341 15 43 41 44 51 41 13 52 53 346 292 191 249 247 301 261 156 114 102 204 210 172 149 231 183 179 188 168 130 139 149 145 151 150 138 135 135 137 134 132 130 128 127 117 106 93 78 60 37 35 33 26 26 26 20 8 7 12 15 13 7 7 7 2 4 5 0 358 356 352 350 346 347 348 345 343 342 340 343 348 351 351 347 343
360 353 15 35 38 45 41 3 326 54 68 308 283 4 332 304 271 221 161 163 200 153 116 170 151 169 197 183 172 155 142 163 175 166 161 149 140 140 136 144 144 147 149 139 136 130 122 110 88 73 33 26 28 23 19 23 22 8 360 5 11 11 1 1 4 359 3 4 357 355 353 350 346 341 341 342 343 344 340 340 342 344 346 345 344 344
359 20 15 27 30 31 12 313 289 61 73 269 284 332 308 278 223 189 157 182 210 61 7 244 173 147 252 128 146 163 161 186 192 176 165 151 148 151 149 153 148 146 146 140 146 147 143 148 141 118 2 358 3 18 21 23 21 12 4 357 359 4 357 355 359 357 360 1 355 353 350 346 343 338 337 338 341 343 341 341 342 344 344 341 341 343
130 57 7 48 34 359 315 298 276 111 2 283 306 328 320 349 136 166 150 136 42 59 252 238 160 140 272 148 167 190 184 201 196 175 171 163 161 168 166 163 155 149 143 141 152 161 166 184 198 229 301 312 306 6 30 21 15 12 8 352 346 356 357 353 355 355 356 355 352 352 348 343 340 336 335 336 339 342 342 340 340 342 342 338 338 339
303 330 330 62 24 315 293 306 329 83 297 314 345 346 354 22 40 80 107 87 60 9 258 223 175 159 300 213 201 209 203 205 190 173 175 172 172 172 163 158 156 155 160 159 165 174 186 204 213 223 266 281 264 288 34 5 3 7 6 354 343 347 353 350 349 351 352 350 349 349 346 341 338 335 334 334 337 340 340 337 337 339 339 337 336 336
2 7 7 356 340 355 4 352 0 5 360 14 20 20 17 357 7 21 1 45 70 284 257 222 188 159 248 237 215 213 234 247 204 181 176 179 178 169 160 161 161 163 177 175 176 188 195 206 214 221 255 265 229 225 316 343 350 359 360 354 341 337 345 345 343 346 347 347 345 344 342 340 336 333 331 330 335 338 337 335 335 337 336 335 334 334
6 16 3 330 347 27 36 11 351 353 15 23 14 39 50 6 6 11 338 15 91 255 257 225 165 121 247 239 196 190 214 263 268 199 177 178 171 168 178 176 174 185 195 189 192 199 204 215 221 224 244 240 220 234 278 326 341 346 350 352 339 331 338 339 339 343 343 343 341 338 338 336 333 331 328 328 332 334 333 331 332 334 333 331 330 330
341 324 356 4 353 16 54 53 355 328 350 0 9 52 74 70 28 332 300 342 303 274 287 304 307 218 293 274 197 184 188 210 264 288 161 167 167 180 190 184 200 215 212 211 208 209 219 229 224 220 227 223 222 248 269 311 330 335 343 349 339 331 336 337 338 340 339 339 337 334 334 333 331 330 329 330 331 330 328 327 328 328 327 325 324 325
49 330 344 15 326 340 47 55 233 231 302 311 92 96 98 109 106 226 243 291 278 283 298 324 339 194 221 287 203 173 181 195 196 182 151 160 176 185 193 202 220 229 224 220 215 219 230 230 215 207 212 211 229 259 267 301 321 329 338 344 337 331 332 333 334 335 335 335 334 331 332 332 330 328 327 329 329 327 326 325 325 324 324 322 320 320
89 264 274 302 334 57 55 328 291 111 337 299 83 83 41 123 152 199 221 225 251 301 300 322 329 199 186 294 246 173 196 203 197 213 206 205 203 188 206 225 227 229 228 217 213 223 226 215 198 192 192 195 231 262 263 292 314 326 334 337 334 329 328 330 331 331 332 333 331 331 331 329 328 326 327 328 326 324 323 323 322 321 321 320 318 318
60 268 270 334 360 47 112 26 30 70 94 325 31 359 277 222 156 159 274 280 12 358 282 266 285 288 328 297 252 221 241 231 217 225 220 216 214 207 222 234 232 232 225 212 219 219 201 185 183 183 181 184 214 262 270 296 316 326 331 333 331 328 327 329 330 331 332 331 331 331 330 326 324 324 324 324 323 322 320 319 319 319 318 317 316 316
122 288 279 186 92 281 190 91 47 44 89 94 20 285 290 328 106 104 316 330 15 349 268 282 278 282 326 306 261 244 252 245 232 229 227 224 218 223 232 234 236 238 222 216 220 203 179 174 178 176 172 179 190 283 289 310 323 327 332 333 331 328 328 329 330 330 330 329 330 330 328 325 324 323 323 323 322 322 320 319 320 319 317 315 314 315
115 359 291 203 149 276 336 65 26 356 34 102 171 294 29 59 359 10 41 331 345 311 287 302 302 268 211 212 217 228 235 239 237 226 222 228 222 223 236 239 243 242 217 211 201 168 165 174 178 170 165 166 121 334 305 333 329 331 333 332 329 326 325 325 325 326 326 327 328 327 325 323 322 322 323 323 322 322 321 320 320 318 316 314 315 316
83 104 290 286 160 212 10 44 3 315 344 19 35 10 32 130 181 250 209 183 236 293 292 310 321 299 235 202 183 212 227 228 234 225 217 225 223 224 238 242 238 225 200 189 159 147 150 157 163 161 158 147 105 130 322 329 327 330 330 327 325 321 320 321 323 325 326 326 325 324 323 320 319 320 321 320 320 320 320 319 318 318 317 317 317 317
359 114 256 304 329 343 354 8 186 207 303 7 39 18 350 343 40 335 278 207 144 178 262 302 304 275 250 192 179 215 229 218 217 215 216 223 225 228 233 231 220 202 182 165 152 147 142 142 148 150 146 129 117 305 318 321 323 327 326 324 322 318 319 322 325 327 326 325 324 323 322 319 319 320 319 318 318 318 319 319 318 319 318 318 317 316
6 98 227 296 332 342 248 266 241 178 157 135 113 114 169 323 63 76 310 311 77 142 203 247 281 271 254 188 189 208 211 199 191 187 200 217 219 225 232 234 220 185 163 161 159 155 151 150 154 153 148 132 337 316 316 318 322 325 324 326 323 318 319 323 325 326 324 322 322 321 320 319 318 318 317 318 318 318 318 319 319 318 317 316 315 315
56 93 93 279 280 239 252 291 9 116 106 97 103 129 135 122 108 125 225 281 345 316 265 192 266 270 261 215 204 199 189 183 173 173 197 227 230 234 251 253 212 168 164 165 160 158 158 158 158 158 154 127 322 314 315 317 319 319 322 324 320 316 320 323 324 323 321 320 319 318 319 319 318 317 318 319 319 318 318 318 317 317 316 316 316 315
67 66 357 295 292 291 297 325 21 94 74 67 11 54 109 137 143 151 179 188 230 287 307 40 282 270 268 242 202 191 187 181 188 193 204 238 254 239 238 235 187 163 164 160 158 159 158 157 156 155 141 103 350 317 315 313 313 317 322 321 315 315 320 323 323 321 319 318 317 317 319 319 318 317 318 318 317 317 317 317 317 316 317 316 316 315
306 65 22 358 344 342 340 345 338 318 8 104 221 340 111 120 96 97 123 109 231 248 173 155 253 257 263 268 217 197 189 191 216 220 200 215 238 231 239 237 168 159 164 164 162 159 158 159 159 149 127 99 351 314 311 313 316 322 324 318 314 318 321 323 323 320 318 318 318 318 318 317 317 317 317 316 316 317 317 317 317 316 317 316 315 313
200 176 100 93 10 317 309 299 288 270 280 176 158 175 164 129 116 129 125 107 210 253 197 196 253 267 275 288 275 244 220 220 238 234 209 210 222 236 250 206 157 173 181 177 170 165 166 163 154 140 116 80 329 312 310 315 320 322 318 313 315 319 322 322 320 317 317 319 319 318 317 317 317 316 316 316 316 316 316 316 316 315 316 315 313 312
90 243 131 139 181 222 241 252 244 202 241 260 213 216 217 174 128 118 118 165 196 229 274 238 244 275 288 290 291 269 236 227 229 222 234 245 244 249 241 177 178 193 186 178 173 170 167 154 144 137 114 51 309 310 311 316 319 318 313 312 316 320 321 319 316 314 317 318 318 316 315 316 315 314 314 314 314 314 314 315 315 314 314 313 311 310
76 324 269 162 213 230 238 253 254 212 223 233 224 223 218 192 137 127 178 221 184 112 281 247 227 271 288 291 288 262 230 217 221 232 249 252 249 245 211 182 193 192 174 172 171 166 160 151 148 145 128 322 309 309 312 315 314 310 308 311 316 321 320 316 313 314 316 317 316 315 314 314 314 313 313 313 313 313 314 314 314 313 313 312 310 309
105 270 234 196 266 267 264 263 249 224 229 228 209 211 215 199 176 185 224 226 164 172 257 261 262 272 279 288 283 245 209 207 221 232 243 250 251 238 205 205 218 206 182 171 169 167 160 157 153 142 126 316 314 312 313 314 308 305 306 311 317 320 317 313 313 315 316 315 314 314 314 314 313 313 312 312 313 314 314 314 313 313 311 310 309 307
121 254 240 195 286 293 292 278 234 211 240 263 237 221 215 211 204 211 234 230 202 228 255 268 278 275 272 280 274 231 196 208 223 236 253 258 256 246 235 241 243 222 193 176 173 169 154 147 143 128 24 318 316 312 314 311 306 305 308 313 316 316 314 314 314 314 314 314 314 315 315 314 313 312 312 313 314 314 314 314 313 312 311 310 309 308
75 285 277 106 336 299 294 289 234 220 238 264 262 247 227 225 227 226 233 234 230 249 260 269 279 278 271 261 253 222 199 220 242 255 261 257 254 258 258 258 258 234 198 177 169 158 141 135 131 137 295 312 310 308 311 307 302 304 309 314 314 312 311 312 313 314 314 314 315 315 315 314 313 313 313 314 314 313 313 313 312 312 311 310 310 309
40 303 332 51 15 289 273 281 275 265 281 287 278 263 238 225 229 226 220 212 203 229 265 284 284 280 272 230 244 241 215 229 251 258 265 266 258 260 262 265 262 231 188 167 159 150 140 145 158 205 275 296 300 303 305 298 295 302 308 312 310 306 307 310 313 316 315 315 316 314 314 314 313 314 314 314 314 313 312 312 311 311 311 311 311 310
105 103 348 52 359 276 279 308 315 353 3 303 271 245 222 214 223 239 241 227 209 206 246 265 265 274 273 224 253 257 232 245 262 261 267 273 262 256 264 268 254 200 169 159 163 161 158 170 189 232 268 286 299 303 297 288 292 303 307 307 305 302 306 312 316 317 315 315 315 314 314 314 314 314 313 313 313 312 312 312 311 311 311 311 311 310
123 117 181 178 195 268 285 328 358 5 314 267 250 210 202 203 215 232 243 240 223 208 227 254 269 282 284 269 260 255 247 255 261 253 252 260 265 270 270 254 182 161 166 169 171 172 176 188 220 254 268 286 297 294 285 284 294 302 302 301 300 302 308 314 315 314 312 313 313 313 314 314 313 313 312 312 313 313 312 312 311 311 311 311 311 310
139 128 207 197 176 254 302 13 14 293 242 239 272 300 184 149 171 234 264 263 246 247 261 269 273 275 274 267 251 241 253 262 265 268 257 229 234 248 230 183 165 170 186 190 186 186 194 213 236 254 271 284 283 278 280 290 297 298 297 298 300 305 310 312 310 308 309 311 312 313 313 313 312 312 311 312 313 313 312 312 311 311 311 311 311 310
152 162 209 219 207 263 356 48 297 265 260 262 287 277 165 81 78 8 291 272 245 244 255 258 265 268 264 256 248 251 291 306 291 268 235 193 185 180 174 184 191 198 208 209 204 202 210 230 241 254 266 265 266 277 289 295 296 294 295 299 304 308 310 306 304 305 308 311 312 312 311 311 311 310 311 312 313 312 312 312 311 311 311 311 310 309
148 157 185 279 224 207 233 228 249 303 311 303 278 248 174 151 147 144 271 267 233 224 238 246 261 265 253 254 272 310 8 338 303 274 212 183 184 183 195 211 213 219 222 213 209 212 218 230 238 247 257 261 273 286 290 291 291 292 297 304 307 307 304 300 301 304 308 311 311 310 309 309 309 310 311 312 312 311 311 311 311 311 311 311 310 309
156 182 182 199 249 121 251 287 320 341 302 266 245 231 138 141 140 124 100 283 249 217 219 226 243 251 251 267 282 345 35 336 299 283 214 193 201 198 209 218 217 219 213 199 198 205 211 226 242 252 265 273 279 282 284 288 292 294 300 307 307 302 298 298 301 305 309 311 309 308 308 307 309 310 311 311 310 310 311 311 310 311 311 310 308 307
301 214 140 152 276 302 147 267 267 247 260 248 212 187 149 137 118 95 31 291 255 208 197 199 219 237 248 256 249 169 38 302 291 287 209 197 210 206 208 214 210 208 207 203 207 213 218 235 250 260 271 274 273 276 282 289 293 296 301 305 303 298 297 298 302 307 310 309 307 306 306 307 310 311 310 310 310 311 311 311 310 311 310 309 308 307
287 306 117 177 244 224 174 234 243 238 258 237 177 168 168 134 100 69 326 284 238 203 200 195 215 235 237 235 223 185 208 258 283 292 194 192 209 208 205 207 203 201 202 202 207 218 226 239 254 265 271 269 267 276 285 290 294 295 297 298 296 295 297 299 304 308 309 306 304 305 306 309 311 310 310 310 311 313 313 312 311 311 311 310 309 308
256 240 179 201 233 220 202 240 266 260 253 213 159 159 156 118 81 33 275 259 202 200 213 203 216 233 225 214 213 209 222 240 263 262 176 182 205 209 206 209 207 208 211 210 216 227 236 248 262 266 265 263 267 277 285 290 292 290 289 290 291 293 298 302 304 306 305 303 303 305 308 310 311 311 312 313 314 314 314 313 313 312 312 311 310 309
279 259 220 204 224 226 211 223 275 282 258 153 128 142 146 121 301 251 238 208 173 196 216 212 215 224 219 215 221 231 244 246 245 240 209 201 213 210 203 202 200 202 207 210 216 227 237 249 256 256 258 263 271 279 286 288 284 281 281 285 290 296 301 303 303 303 302 301 303 306 310 312 312 313 314 316 317 316 315 316 316 313 312 311 310 309
191 204 253 224 202 219 252 256 294 288 249 138 122 120 169 191 226 228 211 211 199 194 201 211 217 214 212 224 234 239 249 253 247 250 248 230 222 216 209 206 206 208 207 208 217 230 242 251 253 257 263 267 271 278 285 282 275 274 280 286 293 300 302 301 301 301 299 300 304 308 311 313 314 316 317 319 320 318 315 316 317 315 314 313 311 310
194 181 225 243 208 162 223 232 230 240 197 162 156 178 208 215 223 213 211 249 237 199 190 210 224 215 204 220 240 243 245 253 252 249 250 242 230 222 216 212 213 215 212 216 227 237 245 252 257 262 266 267 271 281 283 276 272 276 283 290 298 302 300 298 299 298 298 301 305 308 312 314 315 317 319 321 322 320 316 316 316 315 314 314 312 310
219 193 194 231 224 199 217 234 239 227 179 184 204 226 228 233 239 222 221 246 245 209 197 205 221 218 204 212 234 241 243 249 249 241 241 239 229 224 225 224 222 221 221 226 235 242 247 254 259 262 264 267 274 280 279 274 274 278 285 294 302 300 295 297 298 297 299 302 305 308 311 313 315 318 320 322 323 319 315 315 315 314 314 314 313 310
233 190 156 211 259 271 263 255 256 261 247 226 229 239 245 250 249 224 220 238 237 214 203 203 215 217 204 202 222 242 247 249 251 247 239 235 234 234 233 230 225 224 225 227 235 243 250 255 258 260 264 270 275 277 278 277 278 282 289 297 299 294 293 296 297 297 300 302 304 308 311 313 316 319 321 321 321 317 315 315 314 313 312 313 312 310
270 168 172 226 269 287 278 266 250 252 258 253 244 244 250 252 247 227 220 232 228 213 206 208 209 204 195 198 217 243 251 245 247 253 246 234 240 240 234 231 230 229 231 237 246 252 253 254 258 261 265 272 277 279 279 280 282 286 292 295 293 291 293 295 296 297 299 301 305 309 312 313 316 318 318 318 318 318 318 317 315 313 311 311 311 310
281 182 222 233 231 237 259 272 272 263 264 266 261 257 258 256 246 231 224 224 215 204 205 206 198 188 195 209 217 239 253 246 239 247 247 235 238 242 239 237 237 237 242 249 254 255 252 252 257 262 267 273 279 281 281 282 286 289 291 292 291 291 292 294 295 296 298 300 305 308 311 313 314 314 314 316 317 318 318 317 316 313 311 311 310 307
126 181 219 223 240 259 271 277 281 285 281 272 263 258 254 247 235 225 220 214 204 205 211 211 208 206 215 223 219 228 247 248 237 238 242 237 237 242 241 239 239 242 246 251 253 252 251 254 260 264 270 276 280 282 281 282 287 290 290 290 290 290 291 293 295 295 296 299 303 307 311 313 312 312 312 313 315 317 317 317 316 312 309 311 311 304
135 221 228 229 272 273 269 262 263 279 286 276 265 254 241 222 202 197 203 208 211 213 213 220 229 226 224 227 224 220 235 248 242 237 239 239 241 245 245 242 240 243 247 251 253 253 253 257 262 266 271 277 280 280 280 283 287 290 290 290 290 290 291 292 293 293 295 299 302 306 310 311 310 311 312 311 312 314 316 319 320 315 307 308 310 306
199 221 202 199 244 257 264 264 251 241 268 274 265 247 232 203 180 189 204 211 217 216 207 211 232 238 234 233 228 222 226 242 243 237 236 242 246 248 249 245 242 245 250 251 252 253 255 260 264 267 273 278 281 281 281 284 288 291 291 290 291 291 291 290 288 289 292 297 301 304 307 307 308 309 310 310 311 312 312 316 321 323 320 315 312 311